Location: Christianberg
(48.9086°N, 14.0209°E)
Time: 22:44:48
(UTC+00:00)

Cosmos 1812 - Pass Details

Date: 20 June 2021
Orbit: 516 x 519 km, 82.5° (Epoch: 04 August)

Event Time Altitude Azimuth Distance (km) Brightness Sun altitude
Rises 02:03:28 0° 350° (N) 2,650 6.9 -7.5°
Reaches altitude 10° 02:05:37 10° 350° (N) 1,757 6.0 -7.3°
Maximum altitude 02:09:29 87° 260° (W) 525 2.7 -6.8°
Drops below altitude 10° 02:13:18 10° 173° (S) 1,742 5.0 -6.4°
Sets 02:15:25 0° 173° (S) 2,624 5.9 -6.2°
